Tracking 29088 objects as of 13-Jul-2024
HD Live streaming from Space Station
objects crossing your sky now

USA 122

Track USA 122 now!
10-day predictions
USA 122 is classified as:


NORAD ID: 23862
Int'l Code: 1996-029D
Perigee: 2,548.2 km
Apogee: 11,730.1 km
Inclination: 63.3 °
Period: 260.5 minutes
Semi major axis: 13510 km
RCS: Unknown
Launch date: May 12, 1996
Source: United States (US)
Launch site: AIR FORCE WESTERN TEST RANGE (AFWTR)
Your satellite tracking list
Your tracking list is empty




NASA's NSSDC Master Catalog

Two Line Element Set (TLE):
1 23862U 96029D   22297.65721194 0.00000000  00000-0  00000-0 0    07
2 23862  63.3113 163.3626 3398152 268.6168  91.3832  5.52856044    00
Source of the keplerian elements: McCants